Time,TemperatureF,DewpointF,PressureIn,WindDirection,WindDirectionDegrees,WindSpeedMPH,WindSpeedGustMPH,Humidity,HourlyPrecipIn,Conditions,Clouds,dailyrainin,SoftwareType,DateUTC
2013-11-18 00:02:00,72.9,52.5,29.77,SE,139,5.0,11.0,49,0.00,,,0.00,Weather View 32 v70,2013-11-18 10:02:00,
2013-11-18 00:06:00,72.9,52.0,29.77,SE,134,5.0,8.0,48,0.00,,,0.00,Weather View 32 v70,2013-11-18 10:06:00,
2013-11-18 00:11:00,72.9,52.0,29.77,SE,135,6.0,8.0,48,0.00,,,0.00,Weather View 32 v70,2013-11-18 10:11:00,
2013-11-18 00:16:00,72.9,52.0,29.77,SSE,154,4.0,8.0,48,0.00,,,0.00,Weather View 32 v70,2013-11-18 10:16:00,
2013-11-18 00:21:00,72.9,52.0,29.77,SSE,150,3.0,8.0,48,0.00,,,0.00,Weather View 32 v70,2013-11-18 10:21:00,
2013-11-18 00:26:00,72.7,51.8,29.77,SSE,153,4.0,8.0,48,0.00,,,0.00,Weather View 32 v70,2013-11-18 10:26:00,
2013-11-18 00:31:00,72.7,51.8,29.77,ESE,108,5.0,8.0,48,0.00,,,0.00,Weather View 32 v70,2013-11-18 10:31:00,
2013-11-18 00:36:00,72.7,51.8,29.77,ESE,122,4.0,8.0,48,0.00,,,0.00,Weather View 32 v70,2013-11-18 10:36:00,
2013-11-18 00:41:00,72.7,51.8,29.77,SE,135,4.0,8.0,48,0.00,,,0.00,Weather View 32 v70,2013-11-18 10:41:00,
2013-11-18 00:46:00,72.9,52.0,29.77,South,176,4.0,8.0,48,0.00,,,0.00,Weather View 32 v70,2013-11-18 10:46:00,
2013-11-18 00:51:00,72.9,52.0,29.77,SE,131,4.0,8.0,48,0.00,,,0.00,Weather View 32 v70,2013-11-18 10:51:00,
2013-11-18 00:56:00,72.9,52.0,29.77,SSE,168,3.0,8.0,48,0.00,,,0.00,Weather View 32 v70,2013-11-18 10:56:00,
2013-11-18 01:01:00,72.7,51.2,29.77,SE,141,4.0,8.0,47,0.00,,,0.00,Weather View 32 v70,2013-11-18 11:01:00,
2013-11-18 01:06:00,72.7,51.2,29.77,SE,135,8.0,8.0,47,0.00,,,0.00,Weather View 32 v70,2013-11-18 11:06:00,
2013-11-18 01:11:00,72.7,51.8,29.77,SE,137,4.0,8.0,48,0.00,,,0.00,Weather View 32 v70,2013-11-18 11:11:00,
2013-11-18 01:16:00,72.5,51.6,29.77,SE,131,3.0,8.0,48,0.00,,,0.00,Weather View 32 v70,2013-11-18 11:16:00,
2013-11-18 01:21:00,72.3,52.0,29.77,SSE,152,3.0,8.0,49,0.00,,,0.00,Weather View 32 v70,2013-11-18 11:21:00,
2013-11-18 01:26:00,72.3,52.0,29.77,ESE,107,5.0,8.0,49,0.00,,,0.00,Weather View 32 v70,2013-11-18 11:26:00,
2013-11-18 01:31:00,72.3,52.0,29.77,SE,131,4.0,8.0,49,0.00,,,0.00,Weather View 32 v70,2013-11-18 11:31:00,
2013-11-18 01:36:00,72.3,51.5,29.77,SSE,153,4.0,8.0,48,0.00,,,0.00,Weather View 32 v70,2013-11-18 11:36:00,
2013-11-18 01:41:00,72.3,51.5,29.77,SE,138,6.0,8.0,48,0.00,,,0.00,Weather View 32 v70,2013-11-18 11:41:00,
2013-11-18 01:46:00,72.1,51.3,29.77,South,179,4.0,8.0,48,0.00,,,0.00,Weather View 32 v70,2013-11-18 11:46:00,
2013-11-18 01:51:00,72.0,51.1,29.77,South,184,5.0,8.0,48,0.00,,,0.00,Weather View 32 v70,2013-11-18 11:51:00,
2013-11-18 01:56:00,71.8,51.0,29.77,South,184,0.0,8.0,48,0.00,,,0.00,Weather View 32 v70,2013-11-18 11:56:00,
2013-11-18 02:01:00,71.6,51.4,29.77,South,184,0.0,8.0,49,0.00,,,0.00,Weather View 32 v70,2013-11-18 12:01:00,
2013-11-18 02:06:00,71.4,51.8,29.77,South,184,0.0,8.0,50,0.00,,,0.00,Weather View 32 v70,2013-11-18 12:06:00,
2013-11-18 02:11:00,71.2,52.1,29.77,South,184,0.0,8.0,51,0.00,,,0.00,Weather View 32 v70,2013-11-18 12:11:00,
2013-11-18 02:16:00,70.9,52.3,29.77,South,184,0.0,8.0,52,0.00,,,0.00,Weather View 32 v70,2013-11-18 12:16:00,
2013-11-18 02:21:00,70.7,52.2,29.77,South,184,0.0,8.0,52,0.00,,,0.00,Weather View 32 v70,2013-11-18 12:21:00,
2013-11-18 02:26:00,70.5,52.0,29.77,South,184,0.0,8.0,52,0.00,,,0.00,Weather View 32 v70,2013-11-18 12:26:00,
2013-11-18 02:31:00,70.2,52.2,29.77,South,184,0.0,8.0,53,0.00,,,0.00,Weather View 32 v70,2013-11-18 12:31:00,
2013-11-18 02:36:00,70.0,52.0,29.77,South,184,0.0,8.0,53,0.00,,,0.00,Weather View 32 v70,2013-11-18 12:36:00,
2013-11-18 02:41:00,69.6,52.2,29.77,South,184,0.0,8.0,54,0.00,,,0.00,Weather View 32 v70,2013-11-18 12:41:00,
2013-11-18 02:46:00,69.4,52.5,29.77,South,184,0.0,6.0,55,0.00,,,0.00,Weather View 32 v70,2013-11-18 12:46:00,
2013-11-18 02:51:00,69.4,53.0,29.74,South,184,0.0,5.0,56,0.00,,,0.00,Weather View 32 v70,2013-11-18 12:51:00,
2013-11-18 02:56:00,69.4,53.0,29.74,South,184,0.0,3.0,56,0.00,,,0.00,Weather View 32 v70,2013-11-18 12:56:00,
2013-11-18 03:01:00,69.3,53.3,29.74,South,184,0.0,0.0,57,0.00,,,0.00,Weather View 32 v70,2013-11-18 13:01:00,
2013-11-18 03:06:00,69.3,53.3,29.74,South,184,0.0,0.0,57,0.00,,,0.00,Weather View 32 v70,2013-11-18 13:06:00,
2013-11-18 03:11:00,69.1,53.6,29.74,South,184,0.0,0.0,58,0.00,,,0.00,Weather View 32 v70,2013-11-18 13:11:00,
2013-11-18 03:16:00,69.1,54.1,29.74,SSE,152,0.0,3.0,59,0.00,,,0.00,Weather View 32 v70,2013-11-18 13:16:00,
2013-11-18 03:21:00,69.1,54.1,29.74,SSE,152,0.0,3.0,59,0.00,,,0.00,Weather View 32 v70,2013-11-18 13:21:00,
2013-11-18 03:26:00,69.1,54.1,29.74,SSE,152,0.0,3.0,59,0.00,,,0.00,Weather View 32 v70,2013-11-18 13:26:00,
2013-11-18 03:31:00,69.1,54.1,29.74,SSE,152,0.0,3.0,59,0.00,,,0.00,Weather View 32 v70,2013-11-18 13:31:00,
2013-11-18 03:36:00,69.1,54.6,29.77,SE,127,0.0,4.0,60,0.00,,,0.00,Weather View 32 v70,2013-11-18 13:36:00,
2013-11-18 03:41:00,69.1,54.1,29.77,SE,127,0.0,4.0,59,0.00,,,0.00,Weather View 32 v70,2013-11-18 13:41:00,
2013-11-18 03:46:00,69.1,54.1,29.77,SE,127,2.0,5.0,59,0.00,,,0.00,Weather View 32 v70,2013-11-18 13:46:00,
2013-11-18 03:51:00,69.1,53.6,29.77,SE,145,4.0,5.0,58,0.00,,,0.00,Weather View 32 v70,2013-11-18 13:51:00,
2013-11-18 03:56:00,69.3,52.4,29.77,SE,136,2.0,5.0,55,0.00,,,0.00,Weather View 32 v70,2013-11-18 13:56:00,
2013-11-18 04:01:00,69.3,51.9,29.77,SE,136,0.0,5.0,54,0.00,,,0.00,Weather View 32 v70,2013-11-18 14:01:00,
2013-11-18 04:06:00,69.3,51.9,29.77,SE,136,0.0,5.0,54,0.00,,,0.00,Weather View 32 v70,2013-11-18 14:06:00,
2013-11-18 04:11:00,69.1,51.7,29.77,SE,136,3.0,5.0,54,0.00,,,0.00,Weather View 32 v70,2013-11-18 14:11:00,
2013-11-18 04:16:00,69.3,51.3,29.77,SE,129,6.0,6.0,53,0.00,,,0.00,Weather View 32 v70,2013-11-18 14:16:00,
2013-11-18 04:21:00,69.6,51.7,29.74,South,179,3.0,6.0,53,0.00,,,0.00,Weather View 32 v70,2013-11-18 14:21:00,
2013-11-18 04:26:00,69.6,51.2,29.74,SSE,152,4.0,6.0,52,0.00,,,0.00,Weather View 32 v70,2013-11-18 14:26:00,
2013-11-18 04:31:00,69.8,50.3,29.74,SE,138,4.0,6.0,50,0.00,,,0.00,Weather View 32 v70,2013-11-18 14:31:00,
2013-11-18 04:36:00,69.8,49.7,29.77,South,186,0.0,6.0,49,0.00,,,0.00,Weather View 32 v70,2013-11-18 14:36:00,
2013-11-18 04:41:00,69.6,49.6,29.77,SSE,157,4.0,6.0,49,0.00,,,0.00,Weather View 32 v70,2013-11-18 14:41:00,
2013-11-18 04:46:00,69.4,49.9,29.77,South,176,4.0,6.0,50,0.00,,,0.00,Weather View 32 v70,2013-11-18 14:46:00,
2013-11-18 04:51:00,69.3,50.3,29.77,SSE,163,3.0,6.0,51,0.00,,,0.00,Weather View 32 v70,2013-11-18 14:51:00,
2013-11-18 04:56:00,69.3,50.3,29.77,SSE,149,4.0,6.0,51,0.00,,,0.00,Weather View 32 v70,2013-11-18 14:56:00,
2013-11-18 05:01:00,69.4,50.5,29.77,SE,139,3.0,7.0,51,0.00,,,0.00,Weather View 32 v70,2013-11-18 15:01:00,
2013-11-18 05:06:00,69.8,50.3,29.74,SE,142,4.0,7.0,50,0.00,,,0.00,Weather View 32 v70,2013-11-18 15:06:00,
2013-11-18 05:11:00,70.0,50.4,29.74,SSE,161,3.0,7.0,50,0.00,,,0.00,Weather View 32 v70,2013-11-18 15:11:00,
2013-11-18 05:16:00,70.0,49.9,29.74,SSE,155,3.0,7.0,49,0.00,,,0.00,Weather View 32 v70,2013-11-18 15:16:00,
2013-11-18 05:21:00,70.2,49.5,29.74,SSE,166,5.0,8.0,48,0.00,,,0.00,Weather View 32 v70,2013-11-18 15:21:00,
2013-11-18 05:26:00,70.2,49.5,29.74,SE,139,4.0,8.0,48,0.00,,,0.00,Weather View 32 v70,2013-11-18 15:26:00,
2013-11-18 05:31:00,70.2,49.5,29.74,SE,136,5.0,8.0,48,0.00,,,0.00,Weather View 32 v70,2013-11-18 15:31:00,
2013-11-18 05:36:00,70.2,49.5,29.74,SE,126,4.0,8.0,48,0.00,,,0.00,Weather View 32 v70,2013-11-18 15:36:00,
2013-11-18 05:41:00,70.2,48.9,29.74,SE,126,6.0,8.0,47,0.00,,,0.00,Weather View 32 v70,2013-11-18 15:41:00,
2013-11-18 05:46:00,70.2,48.9,29.74,SE,138,5.0,8.0,47,0.00,,,0.00,Weather View 32 v70,2013-11-18 15:46:00,
2013-11-18 05:51:00,70.3,49.7,29.74,SE,144,4.0,8.0,48,0.00,,,0.00,Weather View 32 v70,2013-11-18 15:51:00,
2013-11-18 05:56:00,70.3,49.7,29.74,SE,141,4.0,8.0,48,0.00,,,0.00,Weather View 32 v70,2013-11-18 15:56:00,
2013-11-18 06:01:00,70.2,50.1,29.74,SSE,165,4.0,8.0,49,0.00,,,0.00,Weather View 32 v70,2013-11-18 16:01:00,
2013-11-18 06:06:00,70.3,50.8,29.74,SSE,149,4.0,8.0,50,0.00,,,0.00,Weather View 32 v70,2013-11-18 16:06:00,
2013-11-18 06:11:00,70.3,51.3,29.74,SE,143,6.0,8.0,51,0.00,,,0.00,Weather View 32 v70,2013-11-18 16:11:00,
2013-11-18 06:16:00,70.5,50.9,29.74,SE,133,4.0,8.0,50,0.00,,,0.00,Weather View 32 v70,2013-11-18 16:16:00,
2013-11-18 06:21:00,70.5,50.4,29.74,SE,135,4.0,8.0,49,0.00,,,0.00,Weather View 32 v70,2013-11-18 16:21:00,
2013-11-18 06:26:00,70.5,50.4,29.74,SSE,167,2.0,8.0,49,0.00,,,0.00,Weather View 32 v70,2013-11-18 16:26:00,
2013-11-18 06:31:00,70.5,50.4,29.74,SE,139,4.0,8.0,49,0.00,,,0.00,Weather View 32 v70,2013-11-18 16:31:00,
2013-11-18 06:36:00,70.5,49.8,29.77,South,172,6.0,8.0,48,0.00,,,0.00,Weather View 32 v70,2013-11-18 16:36:00,
2013-11-18 06:41:00,70.5,49.8,29.77,SE,130,4.0,8.0,48,0.00,,,0.00,Weather View 32 v70,2013-11-18 16:41:00,
2013-11-18 06:46:00,70.7,49.4,29.77,SSE,159,5.0,8.0,47,0.00,,,0.00,Weather View 32 v70,2013-11-18 16:46:00,
2013-11-18 06:51:00,70.7,48.8,29.77,SSE,154,5.0,8.0,46,0.00,,,0.00,Weather View 32 v70,2013-11-18 16:51:00,
2013-11-18 06:56:00,70.9,49.6,29.77,SSE,168,3.0,8.0,47,0.00,,,0.00,Weather View 32 v70,2013-11-18 16:56:00,
2013-11-18 07:01:00,71.1,50.3,29.77,SE,138,6.0,8.0,48,0.00,,,0.00,Weather View 32 v70,2013-11-18 17:01:00,
2013-11-18 07:06:00,71.1,50.3,29.77,SE,134,5.0,8.0,48,0.00,,,0.00,Weather View 32 v70,2013-11-18 17:06:00,
2013-11-18 07:11:00,71.2,49.9,29.77,SE,143,3.0,8.0,47,0.00,,,0.00,Weather View 32 v70,2013-11-18 17:11:00,
2013-11-18 07:16:00,71.2,49.3,29.77,SE,135,3.0,8.0,46,0.00,,,0.00,Weather View 32 v70,2013-11-18 17:16:00,
2013-11-18 07:21:00,71.2,49.3,29.77,SSE,148,0.0,8.0,46,0.00,,,0.00,Weather View 32 v70,2013-11-18 17:21:00,
2013-11-18 07:26:00,71.4,49.5,29.77,SE,139,3.0,8.0,46,0.00,,,0.00,Weather View 32 v70,2013-11-18 17:26:00,
2013-11-18 07:31:00,71.6,49.7,29.77,SE,134,4.0,8.0,46,0.00,,,0.00,Weather View 32 v70,2013-11-18 17:31:00,
2013-11-18 07:35:00,71.6,49.7,29.77,SE,140,4.0,8.0,46,0.00,,,0.00,Weather View 32 v70,2013-11-18 17:35:00,
2013-11-18 07:40:00,71.8,50.4,29.77,SE,132,3.0,8.0,47,0.00,,,0.00,Weather View 32 v70,2013-11-18 17:40:00,
2013-11-18 07:45:00,72.0,50.0,29.77,SSE,165,3.0,8.0,46,0.00,,,0.00,Weather View 32 v70,2013-11-18 17:45:00,
2013-11-18 07:50:00,72.0,50.0,29.77,SSE,152,3.0,8.0,46,0.00,,,0.00,Weather View 32 v70,2013-11-18 17:50:00,
2013-11-18 07:55:00,72.1,50.2,29.77,SE,142,3.0,8.0,46,0.00,,,0.00,Weather View 32 v70,2013-11-18 17:55:00,
2013-11-18 08:00:00,72.3,50.3,29.77,SSE,149,0.0,8.0,46,0.00,,,0.00,Weather View 32 v70,2013-11-18 18:00:00,
2013-11-18 08:05:00,72.7,50.6,29.77,SSE,149,0.0,8.0,46,0.00,,,0.00,Weather View 32 v70,2013-11-18 18:05:00,
2013-11-18 08:10:00,72.9,50.8,29.77,SSE,149,0.0,8.0,46,0.00,,,0.00,Weather View 32 v70,2013-11-18 18:10:00,
2013-11-18 08:15:00,73.0,51.0,29.77,SSE,149,0.0,8.0,46,0.00,,,0.00,Weather View 32 v70,2013-11-18 18:15:00,
2013-11-18 08:20:00,73.6,52.0,29.77,SSE,149,0.0,6.0,47,0.00,,,0.00,Weather View 32 v70,2013-11-18 18:20:00,
2013-11-18 08:25:00,73.6,51.5,29.77,SSE,149,0.0,6.0,46,0.00,,,0.00,Weather View 32 v70,2013-11-18 18:25:00,
2013-11-18 08:30:00,73.8,51.6,29.77,SSE,149,0.0,6.0,46,0.00,,,0.00,Weather View 32 v70,2013-11-18 18:30:00,
2013-11-18 08:35:00,73.9,51.8,29.77,SSE,149,0.0,6.0,46,0.00,,,0.00,Weather View 32 v70,2013-11-18 18:35:00,
2013-11-18 08:40:00,74.1,52.0,29.77,SSE,149,0.0,6.0,46,0.00,,,0.00,Weather View 32 v70,2013-11-18 18:40:00,
2013-11-18 08:45:00,74.3,51.5,29.77,SSE,149,0.0,5.0,45,0.00,,,0.00,Weather View 32 v70,2013-11-18 18:45:00,
2013-11-18 08:50:00,75.0,52.8,29.77,SSE,149,0.0,5.0,46,0.00,,,0.00,Weather View 32 v70,2013-11-18 18:50:00,
2013-11-18 08:55:00,75.4,52.5,29.77,SSE,149,0.0,4.0,45,0.00,,,0.00,Weather View 32 v70,2013-11-18 18:55:00,
2013-11-18 09:00:00,75.7,52.2,29.77,SSE,149,0.0,3.0,44,0.00,,,0.00,Weather View 32 v70,2013-11-18 19:00:00,
2013-11-18 09:05:00,76.1,51.9,29.80,SSE,149,0.0,3.0,43,0.00,,,0.00,Weather View 32 v70,2013-11-18 19:05:00,
2013-11-18 09:10:00,76.5,52.2,29.80,SSE,149,0.0,3.0,43,0.00,,,0.00,Weather View 32 v70,2013-11-18 19:10:00,
2013-11-18 09:15:00,76.6,52.4,29.80,SSE,149,0.0,3.0,43,0.00,,,0.00,Weather View 32 v70,2013-11-18 19:15:00,
2013-11-18 09:20:00,77.2,51.6,29.80,SSE,149,0.0,3.0,41,0.00,,,0.00,Weather View 32 v70,2013-11-18 19:20:00,
2013-11-18 09:25:00,77.4,51.7,29.80,SSE,149,0.0,3.0,41,0.00,,,0.00,Weather View 32 v70,2013-11-18 19:25:00,
2013-11-18 09:30:00,77.4,50.4,29.80,SSE,149,0.0,3.0,39,0.00,,,0.00,Weather View 32 v70,2013-11-18 19:30:00,
2013-11-18 09:35:00,77.9,50.9,29.80,SSE,149,0.0,3.0,39,0.00,,,0.00,Weather View 32 v70,2013-11-18 19:35:00,
2013-11-18 09:40:00,78.1,51.7,29.80,SSE,149,0.0,3.0,40,0.00,,,0.00,Weather View 32 v70,2013-11-18 19:40:00,
2013-11-18 09:45:00,78.3,51.9,29.80,ESE,122,4.0,4.0,40,0.00,,,0.00,Weather View 32 v70,2013-11-18 19:45:00,
2013-11-18 09:50:00,78.8,52.4,29.80,ESE,109,4.0,5.0,40,0.00,,,0.00,Weather View 32 v70,2013-11-18 19:50:00,
2013-11-18 09:55:00,79.2,50.6,29.80,NNE,22,3.0,5.0,37,0.00,,,0.00,Weather View 32 v70,2013-11-18 19:55:00,
2013-11-18 10:00:00,79.0,50.4,29.80,ENE,61,3.0,5.0,37,0.00,,,0.00,Weather View 32 v70,2013-11-18 20:00:00,
2013-11-18 10:05:00,79.0,51.8,29.80,East,82,0.0,5.0,39,0.00,,,0.00,Weather View 32 v70,2013-11-18 20:05:00,
2013-11-18 10:10:00,79.0,52.5,29.80,East,81,3.0,5.0,40,0.00,,,0.00,Weather View 32 v70,2013-11-18 20:10:00,
2013-11-18 10:15:00,78.8,51.0,29.80,SE,130,0.0,5.0,38,0.00,,,0.00,Weather View 32 v70,2013-11-18 20:15:00,
2013-11-18 10:20:00,78.8,50.2,29.77,East,96,4.0,5.0,37,0.00,,,0.00,Weather View 32 v70,2013-11-18 20:20:00,
2013-11-18 10:25:00,79.0,51.1,29.77,East,96,0.0,5.0,38,0.00,,,0.00,Weather View 32 v70,2013-11-18 20:25:00,
2013-11-18 10:30:00,79.3,52.8,29.77,SSE,149,2.0,5.0,40,0.00,,,0.00,Weather View 32 v70,2013-11-18 20:30:00,
2013-11-18 10:35:00,79.7,52.5,29.77,SSE,149,0.0,5.0,39,0.00,,,0.00,Weather View 32 v70,2013-11-18 20:35:00,
2013-11-18 10:40:00,80.1,49.9,29.77,South,169,3.0,5.0,35,0.00,,,0.00,Weather View 32 v70,2013-11-18 20:40:00,
2013-11-18 10:45:00,80.2,49.2,29.77,SSE,149,0.0,5.0,34,0.00,,,0.00,Weather View 32 v70,2013-11-18 20:45:00,
2013-11-18 10:50:00,80.4,51.7,29.77,ESE,117,2.0,5.0,37,0.00,,,0.00,Weather View 32 v70,2013-11-18 20:50:00,
2013-11-18 10:55:00,80.2,52.2,29.77,NE,51,3.0,5.0,38,0.00,,,0.00,Weather View 32 v70,2013-11-18 20:55:00,
2013-11-18 11:01:00,80.1,52.8,29.77,East,95,3.0,5.0,39,0.00,,,0.00,Weather View 32 v70,2013-11-18 21:01:00,
2013-11-18 11:06:00,79.9,53.3,29.77,NNE,16,4.0,4.0,40,0.00,,,0.00,Weather View 32 v70,2013-11-18 21:06:00,
2013-11-18 11:11:00,79.5,53.7,29.77,NE,39,0.0,4.0,41,0.00,,,0.00,Weather View 32 v70,2013-11-18 21:11:00,
2013-11-18 11:16:00,79.3,53.5,29.77,NNE,28,4.0,4.0,41,0.00,,,0.00,Weather View 32 v70,2013-11-18 21:16:00,
2013-11-18 11:20:00,79.5,54.3,29.77,East,83,0.0,4.0,42,0.00,,,0.00,Weather View 32 v70,2013-11-18 21:20:00,
2013-11-18 11:26:00,79.7,54.5,29.77,ENE,76,2.0,4.0,42,0.00,,,0.00,Weather View 32 v70,2013-11-18 21:26:00,
2013-11-18 11:31:00,79.7,54.5,29.77,North,9,0.0,4.0,42,0.00,,,0.00,Weather View 32 v70,2013-11-18 21:31:00,
2013-11-18 11:36:00,79.5,53.7,29.77,NNE,19,3.0,4.0,41,0.00,,,0.00,Weather View 32 v70,2013-11-18 21:36:00,
2013-11-18 11:41:00,79.5,53.7,29.77,North,5,0.0,4.0,41,0.00,,,0.00,Weather View 32 v70,2013-11-18 21:41:00,
2013-11-18 11:46:00,79.5,53.7,29.77,NNE,21,0.0,4.0,41,0.00,,,0.00,Weather View 32 v70,2013-11-18 21:46:00,
2013-11-18 11:51:00,79.7,53.8,29.74,NNE,28,0.0,4.0,41,0.00,,,0.00,Weather View 32 v70,2013-11-18 21:51:00,
2013-11-18 11:56:00,79.7,53.8,29.74,North,11,3.0,4.0,41,0.00,,,0.00,Weather View 32 v70,2013-11-18 21:56:00,
2013-11-18 12:01:00,80.1,53.5,29.74,ESE,112,0.0,4.0,40,0.00,,,0.00,Weather View 32 v70,2013-11-18 22:01:00,
2013-11-18 12:06:00,80.4,53.8,29.74,NE,37,0.0,4.0,40,0.00,,,0.00,Weather View 32 v70,2013-11-18 22:06:00,
2013-11-18 12:11:00,80.4,53.1,29.74,North,0,0.0,4.0,39,0.00,,,0.00,Weather View 32 v70,2013-11-18 22:11:00,
2013-11-18 12:16:00,80.4,53.8,29.74,NW,312,0.0,4.0,40,0.00,,,0.00,Weather View 32 v70,2013-11-18 22:16:00,
2013-11-18 12:21:00,80.4,53.8,29.74,North,353,0.0,4.0,40,0.00,,,0.00,Weather View 32 v70,2013-11-18 22:21:00,
2013-11-18 12:26:00,80.2,53.0,29.74,West,266,0.0,4.0,39,0.00,,,0.00,Weather View 32 v70,2013-11-18 22:26:00,
2013-11-18 12:31:00,80.2,52.2,29.74,West,266,0.0,4.0,38,0.00,,,0.00,Weather View 32 v70,2013-11-18 22:31:00,
2013-11-18 12:36:00,80.1,50.6,29.74,West,266,0.0,4.0,36,0.00,,,0.00,Weather View 32 v70,2013-11-18 22:36:00,
2013-11-18 12:41:00,79.7,50.3,29.74,West,266,0.0,4.0,36,0.00,,,0.00,Weather View 32 v70,2013-11-18 22:41:00,
2013-11-18 12:46:00,79.5,51.6,29.74,West,264,0.0,4.0,38,0.00,,,0.00,Weather View 32 v70,2013-11-18 22:46:00,
2013-11-18 12:51:00,79.5,51.6,29.74,West,264,2.0,4.0,38,0.00,,,0.00,Weather View 32 v70,2013-11-18 22:51:00,
2013-11-18 12:56:00,79.7,50.3,29.74,West,264,0.0,4.0,36,0.00,,,0.00,Weather View 32 v70,2013-11-18 22:56:00,
2013-11-18 13:01:00,80.1,49.9,29.74,West,264,0.0,4.0,35,0.00,,,0.00,Weather View 32 v70,2013-11-18 23:01:00,
2013-11-18 13:06:00,80.4,48.6,29.74,NW,322,0.0,4.0,33,0.00,,,0.00,Weather View 32 v70,2013-11-18 23:06:00,
2013-11-18 13:11:00,80.8,48.9,29.74,North,357,0.0,4.0,33,0.00,,,0.00,Weather View 32 v70,2013-11-18 23:11:00,
2013-11-18 13:16:00,80.8,47.2,29.74,North,0,0.0,6.0,31,0.00,,,0.00,Weather View 32 v70,2013-11-18 23:16:00,
2013-11-18 13:21:00,81.0,48.2,29.71,North,357,0.0,6.0,32,0.00,,,0.00,Weather View 32 v70,2013-11-18 23:21:00,
2013-11-18 13:26:00,81.1,47.5,29.71,North,357,2.0,6.0,31,0.00,,,0.00,Weather View 32 v70,2013-11-18 23:26:00,
2013-11-18 13:31:00,81.1,47.5,29.71,West,266,3.0,6.0,31,0.00,,,0.00,Weather View 32 v70,2013-11-18 23:31:00,
2013-11-18 13:36:00,81.5,48.7,29.71,NW,323,0.0,6.0,32,0.00,,,0.00,Weather View 32 v70,2013-11-18 23:36:00,
2013-11-18 13:41:00,81.3,47.7,29.71,North,0,0.0,6.0,31,0.00,,,0.00,Weather View 32 v70,2013-11-18 23:41:00,
2013-11-18 13:46:00,81.0,47.4,29.71,North,0,3.0,6.0,31,0.00,,,0.00,Weather View 32 v70,2013-11-18 23:46:00,
2013-11-18 13:51:00,80.4,49.4,29.71,NNW,328,0.0,6.0,34,0.00,,,0.00,Weather View 32 v70,2013-11-18 23:51:00,
2013-11-18 13:56:00,80.6,51.1,29.71,North,353,0.0,6.0,36,0.00,,,0.00,Weather View 32 v70,2013-11-18 23:56:00,
2013-11-18 14:01:00,81.1,50.8,29.71,North,357,0.0,6.0,35,0.00,,,0.00,Weather View 32 v70,2013-11-19 00:01:00,
2013-11-18 14:06:00,81.5,49.5,29.68,NNE,20,0.0,6.0,33,0.00,,,0.00,Weather View 32 v70,2013-11-19 00:06:00,
2013-11-18 14:11:00,81.1,49.2,29.68,North,357,0.0,6.0,33,0.00,,,0.00,Weather View 32 v70,2013-11-19 00:11:00,
2013-11-18 14:16:00,81.1,50.0,29.68,NNE,19,3.0,6.0,34,0.00,,,0.00,Weather View 32 v70,2013-11-19 00:16:00,
2013-11-18 14:21:00,80.8,51.2,29.71,North,0,4.0,6.0,36,0.00,,,0.00,Weather View 32 v70,2013-11-19 00:21:00,
2013-11-18 14:26:00,80.8,50.5,29.71,NNE,29,3.0,6.0,35,0.00,,,0.00,Weather View 32 v70,2013-11-19 00:26:00,
2013-11-18 14:31:00,80.6,49.5,29.71,North,1,4.0,6.0,34,0.00,,,0.00,Weather View 32 v70,2013-11-19 00:31:00,
2013-11-18 14:36:00,80.2,51.5,29.71,NNE,33,0.0,6.0,37,0.00,,,0.00,Weather View 32 v70,2013-11-19 00:36:00,
2013-11-18 14:41:00,80.1,52.1,29.71,North,6,3.0,6.0,38,0.00,,,0.00,Weather View 32 v70,2013-11-19 00:41:00,
2013-11-18 14:46:00,79.7,50.3,29.71,NNE,33,0.0,6.0,36,0.00,,,0.00,Weather View 32 v70,2013-11-19 00:46:00,
2013-11-18 14:51:00,79.5,52.3,29.71,North,11,0.0,6.0,39,0.00,,,0.00,Weather View 32 v70,2013-11-19 00:51:00,
2013-11-18 14:56:00,79.5,53.0,29.71,North,357,2.0,6.0,40,0.00,,,0.00,Weather View 32 v70,2013-11-19 00:56:00,
2013-11-18 15:01:00,79.5,52.3,29.71,NNE,26,4.0,6.0,39,0.00,,,0.00,Weather View 32 v70,2013-11-19 01:01:00,
2013-11-18 15:06:00,79.5,53.0,29.71,NNE,23,0.0,6.0,40,0.00,,,0.00,Weather View 32 v70,2013-11-19 01:06:00,
2013-11-18 15:11:00,79.5,53.0,29.71,North,8,0.0,6.0,40,0.00,,,0.00,Weather View 32 v70,2013-11-19 01:11:00,
2013-11-18 15:16:00,79.7,52.5,29.71,NNE,14,0.0,6.0,39,0.00,,,0.00,Weather View 32 v70,2013-11-19 01:16:00,
2013-11-18 15:21:00,80.1,53.5,29.71,NE,38,3.0,5.0,40,0.00,,,0.00,Weather View 32 v70,2013-11-19 01:21:00,
2013-11-18 15:26:00,79.9,52.6,29.71,NNE,27,0.0,5.0,39,0.00,,,0.00,Weather View 32 v70,2013-11-19 01:26:00,
2013-11-18 15:31:00,79.5,51.6,29.71,NNE,32,0.0,5.0,38,0.00,,,0.00,Weather View 32 v70,2013-11-19 01:31:00,
2013-11-18 15:36:00,79.7,52.5,29.71,ENE,68,0.0,5.0,39,0.00,,,0.00,Weather View 32 v70,2013-11-19 01:36:00,
2013-11-18 15:41:00,79.5,52.3,29.71,ENE,68,0.0,5.0,39,0.00,,,0.00,Weather View 32 v70,2013-11-19 01:41:00,
2013-11-18 15:44:00,79.3,51.4,29.71,ENE,68,0.0,5.0,38,0.00,,,0.00,Weather View 32 v70,2013-11-19 01:44:00,
2013-11-18 15:49:00,79.3,51.4,29.71,ENE,68,0.0,5.0,38,0.00,,,0.00,Weather View 32 v70,2013-11-19 01:49:00,
2013-11-18 15:54:00,79.3,52.2,29.71,ENE,68,0.0,5.0,39,0.00,,,0.00,Weather View 32 v70,2013-11-19 01:54:00,
2013-11-18 15:59:00,79.3,51.4,29.71,ENE,68,0.0,5.0,38,0.00,,,0.00,Weather View 32 v70,2013-11-19 01:59:00,
2013-11-18 16:04:00,79.5,49.4,29.71,ENE,68,0.0,5.0,35,0.00,,,0.00,Weather View 32 v70,2013-11-19 02:04:00,
2013-11-18 16:09:00,79.7,49.5,29.71,SE,130,4.0,5.0,35,0.00,,,0.00,Weather View 32 v70,2013-11-19 02:09:00,
2013-11-18 16:14:00,79.7,49.5,29.71,SE,130,0.0,5.0,35,0.00,,,0.00,Weather View 32 v70,2013-11-19 02:14:00,
2013-11-18 16:19:00,79.5,50.9,29.71,SE,130,0.0,5.0,37,0.00,,,0.00,Weather View 32 v70,2013-11-19 02:19:00,
2013-11-18 16:24:00,79.3,52.2,29.71,SE,130,0.0,5.0,39,0.00,,,0.00,Weather View 32 v70,2013-11-19 02:24:00,
2013-11-18 16:29:00,79.2,52.7,29.71,SE,130,4.0,4.0,40,0.00,,,0.00,Weather View 32 v70,2013-11-19 02:29:00,
2013-11-18 16:34:00,79.2,52.7,29.71,ESE,107,0.0,4.0,40,0.00,,,0.00,Weather View 32 v70,2013-11-19 02:34:00,
2013-11-18 16:39:00,79.3,53.5,29.71,ESE,120,0.0,4.0,41,0.00,,,0.00,Weather View 32 v70,2013-11-19 02:39:00,
2013-11-18 16:44:00,79.3,52.8,29.71,ESE,115,4.0,5.0,40,0.00,,,0.00,Weather View 32 v70,2013-11-19 02:44:00,
2013-11-18 16:49:00,79.3,52.8,29.71,SE,137,3.0,6.0,40,0.00,,,0.00,Weather View 32 v70,2013-11-19 02:49:00,
2013-11-18 16:54:00,79.2,52.7,29.71,SE,137,3.0,6.0,40,0.00,,,0.00,Weather View 32 v70,2013-11-19 02:54:00,
2013-11-18 16:59:00,78.8,53.0,29.71,ESE,112,3.0,6.0,41,0.00,,,0.00,Weather View 32 v70,2013-11-19 02:59:00,
2013-11-18 17:04:00,78.6,52.9,29.71,ESE,122,3.0,6.0,41,0.00,,,0.00,Weather View 32 v70,2013-11-19 03:04:00,
2013-11-18 17:09:00,78.4,52.7,29.71,ESE,122,0.0,6.0,41,0.00,,,0.00,Weather View 32 v70,2013-11-19 03:09:00,
2013-11-18 17:14:00,78.1,53.0,29.71,ESE,122,0.0,6.0,42,0.00,,,0.00,Weather View 32 v70,2013-11-19 03:14:00,
2013-11-18 17:19:00,77.9,52.9,29.74,ESE,122,0.0,6.0,42,0.00,,,0.00,Weather View 32 v70,2013-11-19 03:19:00,
2013-11-18 17:24:00,77.7,54.0,29.74,ENE,65,4.0,6.0,44,0.00,,,0.00,Weather View 32 v70,2013-11-19 03:24:00,
2013-11-18 17:29:00,77.5,53.8,29.74,ESE,113,3.0,6.0,44,0.00,,,0.00,Weather View 32 v70,2013-11-19 03:29:00,
2013-11-18 17:34:00,77.4,53.7,29.74,ENE,72,3.0,6.0,44,0.00,,,0.00,Weather View 32 v70,2013-11-19 03:34:00,
2013-11-18 17:39:00,77.0,53.3,29.74,East,97,0.0,6.0,44,0.00,,,0.00,Weather View 32 v70,2013-11-19 03:39:00,
2013-11-18 17:44:00,76.8,53.8,29.74,East,97,0.0,6.0,45,0.00,,,0.00,Weather View 32 v70,2013-11-19 03:44:00,
2013-11-18 17:49:00,76.6,54.2,29.74,East,99,0.0,4.0,46,0.00,,,0.00,Weather View 32 v70,2013-11-19 03:49:00,
2013-11-18 17:54:00,76.3,53.9,29.74,East,99,0.0,4.0,46,0.00,,,0.00,Weather View 32 v70,2013-11-19 03:54:00,
2013-11-18 17:59:00,76.1,53.8,29.74,East,99,2.0,4.0,46,0.00,,,0.00,Weather View 32 v70,2013-11-19 03:59:00,
2013-11-18 18:04:00,75.7,54.0,29.74,South,176,0.0,4.0,47,0.00,,,0.00,Weather View 32 v70,2013-11-19 04:04:00,
2013-11-18 18:07:00,75.7,54.0,29.74,South,176,0.0,4.0,47,0.00,,,0.00,Weather View 32 v70,2013-11-19 04:07:00,
2013-11-18 18:12:00,75.6,54.4,29.74,South,176,0.0,4.0,48,0.00,,,0.00,Weather View 32 v70,2013-11-19 04:12:00,
2013-11-18 18:17:00,75.4,54.8,29.74,South,176,0.0,4.0,49,0.00,,,0.00,Weather View 32 v70,2013-11-19 04:17:00,
2013-11-18 18:22:00,75.2,55.2,29.74,South,176,0.0,4.0,50,0.00,,,0.00,Weather View 32 v70,2013-11-19 04:22:00,
2013-11-18 18:27:00,74.8,55.4,29.74,South,176,0.0,4.0,51,0.00,,,0.00,Weather View 32 v70,2013-11-19 04:27:00,
2013-11-18 18:32:00,74.7,55.8,29.74,South,176,0.0,4.0,52,0.00,,,0.00,Weather View 32 v70,2013-11-19 04:32:00,
2013-11-18 18:37:00,74.5,56.2,29.74,South,176,0.0,4.0,53,0.00,,,0.00,Weather View 32 v70,2013-11-19 04:37:00,
2013-11-18 18:42:00,74.5,56.7,29.74,South,176,0.0,4.0,54,0.00,,,0.00,Weather View 32 v70,2013-11-19 04:42:00,
2013-11-18 18:47:00,74.1,56.4,29.74,South,176,0.0,4.0,54,0.00,,,0.00,Weather View 32 v70,2013-11-19 04:47:00,
2013-11-18 18:52:00,73.9,56.7,29.77,South,176,0.0,4.0,55,0.00,,,0.00,Weather View 32 v70,2013-11-19 04:52:00,
2013-11-18 18:57:00,73.8,56.5,29.77,South,176,0.0,4.0,55,0.00,,,0.00,Weather View 32 v70,2013-11-19 04:57:00,
2013-11-18 19:01:00,73.6,56.9,29.77,South,176,0.0,4.0,56,0.00,,,0.00,Weather View 32 v70,2013-11-19 05:01:00,
2013-11-18 19:02:00,73.4,56.7,29.77,South,176,0.0,4.0,56,0.00,,,0.00,Weather View 32 v70,2013-11-19 05:02:00,
2013-11-18 19:07:00,73.2,57.0,29.77,South,176,0.0,4.0,57,0.00,,,0.00,Weather View 32 v70,2013-11-19 05:07:00,
2013-11-18 19:12:00,73.2,57.0,29.77,South,176,0.0,4.0,57,0.00,,,0.00,Weather View 32 v70,2013-11-19 05:12:00,
2013-11-18 19:17:00,73.0,57.8,29.77,ESE,119,0.0,4.0,59,0.00,,,0.00,Weather View 32 v70,2013-11-19 05:17:00,
2013-11-18 19:22:00,73.0,58.7,29.77,ESE,119,0.0,4.0,61,0.00,,,0.00,Weather View 32 v70,2013-11-19 05:22:00,
2013-11-18 19:27:00,73.0,58.7,29.77,East,93,0.0,4.0,61,0.00,,,0.00,Weather View 32 v70,2013-11-19 05:27:00,
2013-11-18 19:32:00,73.0,58.7,29.77,East,93,0.0,4.0,61,0.00,,,0.00,Weather View 32 v70,2013-11-19 05:32:00,
2013-11-18 19:37:00,72.9,58.6,29.77,East,93,0.0,4.0,61,0.00,,,0.00,Weather View 32 v70,2013-11-19 05:37:00,
2013-11-18 19:42:00,72.7,58.4,29.77,East,93,0.0,4.0,61,0.00,,,0.00,Weather View 32 v70,2013-11-19 05:42:00,
2013-11-18 19:47:00,72.5,58.2,29.77,ESE,104,3.0,4.0,61,0.00,,,0.00,Weather View 32 v70,2013-11-19 05:47:00,
2013-11-18 19:52:00,72.5,58.2,29.77,SE,139,3.0,6.0,61,0.00,,,0.00,Weather View 32 v70,2013-11-19 05:52:00,
2013-11-18 19:57:00,72.5,57.3,29.77,SE,126,6.0,6.0,59,0.00,,,0.00,Weather View 32 v70,2013-11-19 05:57:00,
2013-11-18 20:02:00,72.7,55.5,29.77,East,94,3.0,8.0,55,0.00,,,0.00,Weather View 32 v70,2013-11-19 06:02:00,
2013-11-18 20:07:00,72.7,54.5,29.77,SSE,152,5.0,8.0,53,0.00,,,0.00,Weather View 32 v70,2013-11-19 06:07:00,
2013-11-18 20:12:00,72.9,53.6,29.77,SE,134,6.0,8.0,51,0.00,,,0.00,Weather View 32 v70,2013-11-19 06:12:00,
2013-11-18 20:17:00,73.0,53.2,29.77,SSE,149,4.0,8.0,50,0.00,,,0.00,Weather View 32 v70,2013-11-19 06:17:00,
2013-11-18 20:22:00,73.0,52.7,29.80,SSE,160,6.0,8.0,49,0.00,,,0.00,Weather View 32 v70,2013-11-19 06:22:00,
2013-11-18 20:27:00,72.9,52.5,29.80,SE,141,4.0,9.0,49,0.00,,,0.00,Weather View 32 v70,2013-11-19 06:27:00,
2013-11-18 20:32:00,73.0,52.7,29.80,SE,136,5.0,9.0,49,0.00,,,0.00,Weather View 32 v70,2013-11-19 06:32:00,
2013-11-18 20:37:00,73.0,52.7,29.80,South,169,4.0,9.0,49,0.00,,,0.00,Weather View 32 v70,2013-11-19 06:37:00,
2013-11-18 20:42:00,73.0,52.1,29.80,SSE,154,5.0,9.0,48,0.00,,,0.00,Weather View 32 v70,2013-11-19 06:42:00,
2013-11-18 20:47:00,73.0,52.1,29.80,SE,138,5.0,10.0,48,0.00,,,0.00,Weather View 32 v70,2013-11-19 06:47:00,
2013-11-18 20:52:00,73.2,51.7,29.80,SSE,149,4.0,11.0,47,0.00,,,0.00,Weather View 32 v70,2013-11-19 06:52:00,
2013-11-18 20:57:00,73.0,51.6,29.80,South,175,6.0,11.0,47,0.00,,,0.00,Weather View 32 v70,2013-11-19 06:57:00,
2013-11-18 21:02:00,73.0,51.0,29.80,SSE,162,3.0,11.0,46,0.00,,,0.00,Weather View 32 v70,2013-11-19 07:02:00,
2013-11-18 21:07:00,72.9,51.4,29.80,SE,135,6.0,11.0,47,0.00,,,0.00,Weather View 32 v70,2013-11-19 07:07:00,
2013-11-18 21:12:00,72.9,50.8,29.80,SE,124,8.0,11.0,46,0.00,,,0.00,Weather View 32 v70,2013-11-19 07:12:00,
2013-11-18 21:17:00,72.9,50.2,29.80,South,187,4.0,11.0,45,0.00,,,0.00,Weather View 32 v70,2013-11-19 07:17:00,
2013-11-18 21:22:00,72.9,50.2,29.77,SSE,149,5.0,11.0,45,0.00,,,0.00,Weather View 32 v70,2013-11-19 07:22:00,
2013-11-18 21:27:00,72.9,49.6,29.77,SE,139,9.0,11.0,44,0.00,,,0.00,Weather View 32 v70,2013-11-19 07:27:00,
2013-11-18 21:32:00,73.0,49.8,29.77,SE,134,5.0,11.0,44,0.00,,,0.00,Weather View 32 v70,2013-11-19 07:32:00,
2013-11-18 21:37:00,72.9,49.6,29.80,SE,144,3.0,11.0,44,0.00,,,0.00,Weather View 32 v70,2013-11-19 07:37:00,
2013-11-18 21:42:00,72.9,49.6,29.80,SSE,154,5.0,11.0,44,0.00,,,0.00,Weather View 32 v70,2013-11-19 07:42:00,
2013-11-18 21:47:00,72.9,49.0,29.80,SSE,161,5.0,11.0,43,0.00,,,0.00,Weather View 32 v70,2013-11-19 07:47:00,
2013-11-18 21:52:00,73.0,49.2,29.80,SSE,152,4.0,9.0,43,0.00,,,0.00,Weather View 32 v70,2013-11-19 07:52:00,
2013-11-18 21:57:00,73.0,49.2,29.80,SSE,150,4.0,9.0,43,0.00,,,0.00,Weather View 32 v70,2013-11-19 07:57:00,
2013-11-18 22:02:00,73.0,49.2,29.80,SE,131,5.0,9.0,43,0.00,,,0.00,Weather View 32 v70,2013-11-19 08:02:00,
2013-11-18 22:07:00,73.0,49.2,29.80,SSE,165,6.0,9.0,43,0.00,,,0.00,Weather View 32 v70,2013-11-19 08:07:00,
2013-11-18 22:12:00,73.0,49.2,29.80,SE,140,6.0,9.0,43,0.00,,,0.00,Weather View 32 v70,2013-11-19 08:12:00,
2013-11-18 22:17:00,72.9,49.0,29.80,SSE,166,5.0,10.0,43,0.00,,,0.00,Weather View 32 v70,2013-11-19 08:17:00,
2013-11-18 22:22:00,72.9,49.0,29.80,SSE,164,11.0,11.0,43,0.00,,,0.00,Weather View 32 v70,2013-11-19 08:22:00,
2013-11-18 22:27:00,72.7,48.8,29.80,South,183,6.0,11.0,43,0.00,,,0.00,Weather View 32 v70,2013-11-19 08:27:00,
2013-11-18 22:32:00,72.5,48.7,29.80,SSW,193,6.0,11.0,43,0.00,,,0.00,Weather View 32 v70,2013-11-19 08:32:00,
2013-11-18 22:37:00,72.3,48.5,29.80,ESE,121,5.0,11.0,43,0.00,,,0.00,Weather View 32 v70,2013-11-19 08:37:00,
2013-11-18 22:42:00,72.3,49.1,29.80,SE,141,6.0,11.0,44,0.00,,,0.00,Weather View 32 v70,2013-11-19 08:42:00,
2013-11-18 22:47:00,72.1,49.0,29.80,SSE,151,3.0,11.0,44,0.00,,,0.00,Weather View 32 v70,2013-11-19 08:47:00,
2013-11-18 22:52:00,72.1,49.0,29.80,SE,139,5.0,11.0,44,0.00,,,0.00,Weather View 32 v70,2013-11-19 08:52:00,
2013-11-18 22:57:00,72.1,49.6,29.80,SSE,168,5.0,11.0,45,0.00,,,0.00,Weather View 32 v70,2013-11-19 08:57:00,
2013-11-18 23:02:00,72.1,49.6,29.80,SSE,161,4.0,11.0,45,0.00,,,0.00,Weather View 32 v70,2013-11-19 09:02:00,
2013-11-18 23:07:00,72.1,49.0,29.80,SSE,149,6.0,11.0,44,0.00,,,0.00,Weather View 32 v70,2013-11-19 09:07:00,
2013-11-18 23:12:00,72.1,49.6,29.80,South,173,4.0,11.0,45,0.00,,,0.00,Weather View 32 v70,2013-11-19 09:12:00,
2013-11-18 23:17:00,72.0,49.4,29.80,SSW,200,4.0,11.0,45,0.00,,,0.00,Weather View 32 v70,2013-11-19 09:17:00,
2013-11-18 23:22:00,72.0,49.4,29.80,SSW,202,5.0,11.0,45,0.00,,,0.00,Weather View 32 v70,2013-11-19 09:22:00,
2013-11-18 23:27:00,72.0,49.4,29.80,SSW,192,3.0,11.0,45,0.00,,,0.00,Weather View 32 v70,2013-11-19 09:27:00,
2013-11-18 23:32:00,71.8,49.2,29.80,SE,146,5.0,11.0,45,0.00,,,0.00,Weather View 32 v70,2013-11-19 09:32:00,
2013-11-18 23:37:00,71.8,48.6,29.80,SE,139,4.0,11.0,44,0.00,,,0.00,Weather View 32 v70,2013-11-19 09:37:00,
2013-11-18 23:42:00,71.8,48.6,29.80,South,174,4.0,11.0,44,0.00,,,0.00,Weather View 32 v70,2013-11-19 09:42:00,
2013-11-18 23:47:00,71.8,49.2,29.80,SE,142,6.0,10.0,45,0.00,,,0.00,Weather View 32 v70,2013-11-19 09:47:00,
2013-11-18 23:52:00,71.8,48.6,29.80,SE,146,5.0,9.0,44,0.00,,,0.00,Weather View 32 v70,2013-11-19 09:52:00,
2013-11-18 23:57:00,72.0,48.8,29.80,SE,139,4.0,9.0,44,0.00,,,0.00,Weather View 32 v70,2013-11-19 09:57:00,